User: anonymous   Login
Location: Unspecified
(0.0000°N, 0.0000°E)
Time: 13:35:59
(UTC+02:00)
Language:

Resurs 1-3 - Orbit

View from above orbital plane
View from above orbital plane
View from above satellite
View from above satellite

Ground track
Ground track

The orbit data is extracted from the following two-line orbital elements,

1 23342U 94074A   18115.71482911  .00000028  00000-0  10825-4 0  9997
2 23342  98.0371 159.7271 0001606 114.9597 245.1781 14.79332508263983
Epoch (UTC): 25 April 2018 17:09:21
Eccentricity: 0.0001606
inclination: 98.0371°
perigee height: 630 km
apogee height: 632 km
right ascension of ascending node: 159.7271°
argument of perigee: 114.9597°
revolutions per day: 14.79332508
mean anomaly at epoch: 245.1781°
orbit number at epoch: 26398

The dashed part of the orbit path shows where the satellite is in the earth's shadow,  

DLR